Theta_e
321 315 313 318 322 328 325 321 307 313 311 304 304 306 302 308 306 304 304 306 305 311 317 322 323 321 317 315 317 319 318 311 310 307 307 323 334 337 339 341 343 343 343 343 343 344 343 343 343 342 344 345 345 346 345 345 343 343 346 347 344 343 342 341 340 340 338 336 338 338 339 340 341 342 342 344 342 339 337 337 338 342 344 344 343 342 343 341 343 343 343 345 345 344 343 343 343
315 312 314 319 324 324 316 319 310 308 307 303 303 305 302 304 305 303 303 304 304 308 319 320 321 321 321 321 322 320 311 310 311 310 325 319 321 328 327 341 344 343 341 344 344 342 345 345 343 343 344 343 344 344 346 344 343 344 346 346 344 343 342 341 340 340 340 337 338 340 339 341 342 343 343 343 343 344 345 342 338 342 343 343 343 342 342 341 343 344 344 345 344 343 342 343 343
311 311 318 322 323 321 319 316 305 305 302 299 301 301 304 302 302 305 306 308 310 313 322 320 319 318 319 319 314 311 305 309 309 309 316 317 312 315 323 334 340 340 342 343 344 343 343 344 342 344 344 344 344 344 345 344 344 344 344 343 343 342 342 341 339 340 340 338 337 340 340 340 342 342 343 343 343 342 344 342 341 342 342 342 342 342 341 343 344 344 344 344 344 343 341 342 343
310 312 318 320 313 319 312 310 307 305 302 302 300 302 301 300 302 305 309 311 315 315 313 318 310 312 312 306 305 315 304 302 308 306 307 312 313 315 319 324 328 329 331 339 342 341 341 341 341 342 342 343 343 343 344 344 343 343 343 343 343 342 341 340 340 340 340 339 336 338 340 341 342 342 341 342 343 342 342 342 341 341 338 341 342 341 343 341 343 344 344 344 343 343 342 342 342
310 318 321 317 316 309 312 308 306 306 301 302 300 301 300 301 302 304 309 314 314 313 320 317 312 310 308 303 305 300 297 303 308 308 305 310 314 311 312 317 319 321 321 328 337 339 341 340 340 339 342 342 342 342 343 344 344 344 344 343 342 342 341 341 341 340 340 340 339 340 340 340 341 342 342 342 342 342 341 341 342 340 340 342 343 342 342 341 341 344 343 343 342 342 341 341 342
313 316 318 319 310 316 312 304 302 298 296 300 299 298 300 302 301 304 308 316 318 319 320 320 316 311 303 301 301 298 301 297 305 306 307 307 311 310 309 314 315 314 315 318 325 332 333 336 340 341 342 342 341 341 345 344 344 344 344 344 344 343 342 342 342 341 341 340 340 340 340 341 342 342 342 342 342 343 343 342 343 342 342 341 342 343 342 341 341 343 343 343 341 341 341 341 341
314 314 315 316 313 315 305 302 299 298 296 298 296 297 300 302 303 305 311 314 316 316 320 312 311 309 303 302 303 302 305 305 303 303 307 309 312 307 306 308 310 310 312 313 317 325 329 333 336 339 341 342 341 345 345 345 344 344 344 344 344 343 343 343 342 342 342 342 342 341 341 342 342 342 342 342 340 341 343 341 341 341 342 342 342 342 343 342 340 341 343 343 340 341 340 341 341
315 311 310 307 306 309 302 300 299 299 295 298 298 298 300 302 305 308 311 312 307 309 310 317 313 305 299 306 296 301 303 305 304 305 306 307 306 304 304 304 306 307 309 312 314 318 326 330 332 335 338 340 342 341 341 341 343 344 342 343 344 344 344 343 343 343 343 342 343 344 344 344 343 343 342 342 341 342 341 340 340 339 340 340 341 341 341 341 341 340 340 340 340 340 340 339 341
312 311 310 309 303 304 300 297 295 297 296 297 298 300 302 303 305 308 307 309 309 305 303 308 314 304 299 299 295 298 301 303 306 308 307 305 303 302 302 302 302 304 307 309 311 315 319 326 329 331 333 335 337 339 340 340 340 340 340 339 340 342 342 342 341 342 340 339 340 341 342 343 343 342 342 342 342 341 342 340 338 340 340 340 341 340 340 340 340 340 341 339 339 340 339 340 339
308 309 303 306 306 298 296 295 295 294 294 297 297 298 299 303 303 307 306 303 304 304 302 305 305 298 298 295 297 297 298 302 303 303 303 303 304 302 301 301 302 303 304 306 310 312 316 323 325 327 329 330 332 334 336 337 337 337 338 338 337 338 338 339 339 340 339 339 339 340 342 343 343 343 343 343 342 341 341 341 341 340 339 338 338 339 340 340 339 340 340 340 340 339 339 339 339
303 307 311 303 300 297 297 293 293 294 295 298 298 299 299 302 302 301 303 302 304 301 301 303 302 299 298 295 295 301 302 301 300 298 300 301 302 301 300 301 302 304 304 305 308 310 312 315 322 323 325 327 328 330 331 332 332 333 333 333 333 332 331 331 332 333 335 336 337 338 339 342 343 343 343 342 340 340 341 341 340 339 340 339 339 340 339 339 339 339 340 340 340 339 338 338 338
301 303 305 299 299 299 296 293 292 293 295 296 295 297 300 300 302 299 298 299 301 300 298 300 300 304 297 295 293 298 299 300 299 300 300 302 302 301 300 300 300 302 304 305 307 307 310 312 314 318 320 322 323 325 326 327 329 329 329 329 329 329 328 328 329 329 329 331 333 335 337 338 341 343 343 341 340 340 340 340 339 339 340 340 340 339 339 340 339 339 339 340 340 339 337 337 338
304 307 302 301 296 297 295 293 292 294 293 292 293 296 300 297 296 298 297 297 298 298 297 299 302 302 295 294 297 298 297 298 300 300 300 300 302 301 300 300 300 300 302 304 305 307 309 310 310 312 314 317 318 319 322 323 324 325 325 324 323 324 323 323 324 325 325 326 328 328 330 331 331 333 336 338 338 339 339 338 338 338 339 340 339 337 337 337 338 338 339 339 338 339 339 338 338
305 304 304 295 297 295 295 293 294 292 289 292 294 296 297 296 296 298 299 295 294 295 298 299 303 300 294 296 294 294 295 298 300 300 300 299 300 301 301 300 299 299 301 302 302 304 306 309 309 310 311 311 310 312 315 317 320 321 319 318 319 319 319 319 320 320 321 322 323 323 325 326 326 327 328 328 328 329 331 334 335 337 339 339 339 338 338 338 337 338 338 338 338 339 339 338 337
302 303 301 297 294 294 293 292 292 291 289 293 293 295 295 296 297 296 296 293 292 299 302 300 300 300 291 293 292 291 294 297 298 299 300 301 298 299 300 299 300 300 298 300 301 301 303 306 309 308 308 308 308 308 309 310 314 315 315 315 314 315 314 314 315 315 316 317 318 319 320 321 322 322 323 325 324 323 324 325 326 329 334 337 339 340 338 338 337 336 335 336 338 338 338 337 337
304 305 302 296 293 293 291 292 293 291 289 293 294 295 294 294 297 294 295 295 293 297 298 292 297 296 294 291 290 293 294 297 297 298 299 301 299 299 298 299 297 298 297 298 298 300 301 302 306 308 307 307 307 307 307 307 309 311 312 312 311 311 311 311 311 311 311 312 313 314 315 315 316 316 319 320 320 319 320 318 320 322 324 327 331 334 337 338 337 336 336 336 334 335 336 338 335
303 307 297 295 291 292 291 292 293 289 291 293 295 295 292 291 296 295 298 297 293 292 293 293 292 295 292 291 293 294 295 296 297 296 297 295 295 294 295 297 299 296 296 296 296 297 299 300 301 304 307 306 307 306 307 306 306 307 307 308 308 308 308 309 308 308 308 308 308 309 311 309 310 311 312 315 316 315 313 313 315 316 318 321 324 328 330 332 335 336 337 337 336 335 335 333 334
304 298 295 291 291 289 291 290 292 294 291 292 292 294 294 291 294 294 297 294 293 292 291 292 293 293 293 293 294 294 294 294 294 293 292 292 293 292 292 293 294 293 294 294 295 296 297 297 299 299 303 305 306 306 304 304 304 305 303 303 303 304 306 306 304 304 307 305 306 305 305 305 305 307 309 312 310 309 309 310 311 313 315 317 319 321 322 323 326 331 334 336 337 336 334 334 334
297 295 294 288 290 289 293 292 293 292 290 292 292 293 293 291 293 295 292 291 292 290 290 291 289 290 292 292 292 292 293 292 292 291 291 290 290 290 290 292 292 293 293 294 294 295 296 296 297 297 298 299 302 301 301 302 302 303 303 303 303 304 303 301 300 302 303 303 303 304 305 304 304 305 305 307 307 307 306 307 308 309 311 312 314 315 318 320 323 327 329 331 333 334 334 336 335
295 295 288 287 291 290 292 293 292 293 293 291 291 292 291 292 293 296 291 289 290 288 288 288 288 288 289 290 291 291 291 291 292 290 289 290 290 290 290 290 291 292 293 293 294 295 296 296 296 296 297 297 296 297 298 298 298 299 299 301 302 301 300 300 299 299 300 300 301 301 302 304 305 303 305 306 306 304 304 304 305 305 307 308 310 311 314 316 319 321 325 326 331 332 332 332 332
293 293 289 289 292 289 290 292 292 293 294 292 291 292 290 291 292 293 291 289 288 288 289 288 287 288 289 290 290 290 290 290 290 291 290 290 289 290 290 290 291 292 293 293 293 293 294 295 295 296 296 296 296 295 296 296 297 297 298 298 299 300 299 299 298 299 299 300 300 299 300 300 301 302 302 301 301 301 301 302 302 302 301 302 306 305 307 311 312 315 317 319 324 327 329 331 331
292 289 291 291 291 288 290 291 292 292 293 292 291 290 289 293 292 290 290 287 285 287 289 290 289 289 289 289 290 291 289 289 290 289 290 290 290 289 290 290 291 292 293 291 291 292 293 295 295 295 296 296 295 295 295 296 296 295 296 296 296 297 298 297 297 296 295 297 298 299 298 299 299 299 299 300 300 300 299 299 301 302 302 302 302 301 303 306 308 309 309 310 312 316 323 328 329
287 289 289 291 291 289 290 291 290 292 291 291 289 290 292 290 288 290 289 287 288 291 291 290 290 290 290 290 290 289 289 289 289 289 290 289 289 289 290 290 290 291 293 291 292 291 293 293 293 294 294 295 295 295 295 295 295 295 295 295 294 294 295 294 295 295 295 296 296 298 298 297 298 298 299 299 298 299 298 298 298 299 299 301 303 302 301 300 302 305 309 309 311 311 312 317 323
290 285 289 288 290 288 290 289 291 291 291 289 291 293 290 290 286 290 288 289 290 291 291 291 291 291 291 289 289 288 289 289 289 290 290 290 290 289 290 290 291 290 290 290 292 292 292 292 293 293 293 294 294 295 294 294 294 294 294 294 294 295 294 293 293 294 294 294 295 295 295 294 295 297 298 298 299 300 300 299 298 298 298 298 299 299 299 301 300 300 303 305 307 308 309 312 313
288 286 289 289 290 290 290 290 290 290 290 292 291 289 288 289 288 289 287 289 290 290 291 291 291 291 290 290 289 289 289 289 289 290 291 291 291 292 291 291 290 290 289 290 292 292 291 292 292 292 292 292 293 293 293 293 293 293 293 293 293 296 294 294 293 293 293 293 294 294 295 293 292 293 295 297 297 297 299 299 299 299 298 298 298 298 299 299 300 301 301 300 301 302 305 306 307
289 288 290 289 289 290 291 290 290 290 291 292 289 287 289 289 291 287 288 289 290 291 290 290 290 289 289 289 289 289 289 289 289 289 289 290 291 291 291 291 291 290 290 291 291 291 291 291 291 292 292 292 293 293 293 293 293 292 293 293 293 294 293 294 294 292 292 293 293 294 294 293 292 292 293 294 295 297 297 298 298 298 298 300 300 298 298 298 297 298 300 300 300 300 301 304 304
291 290 290 289 289 290 291 289 289 291 290 292 289 287 287 291 289 284 289 290 291 290 289 290 289 288 289 289 289 290 289 289 289 290 290 290 289 289 290 291 290 291 291 290 291 291 292 291 291 292 293 294 293 292 293 292 293 292 293 293 293 293 293 294 293 292 293 293 293 294 293 293 293 293 293 293 293 293 293 295 297 298 298 299 299 299 300 299 298 298 298 298 298 298 299 302 303
291 291 291 290 291 291 291 291 289 291 288 290 290 287 289 289 288 285 287 290 290 288 288 288 289 288 289 289 289 290 290 290 290 290 289 289 289 289 289 289 288 289 289 289 290 291 291 291 291 293 293 294 293 292 293 293 292 292 293 292 292 292 293 292 292 292 293 292 293 293 293 293 293 293 294 293 293 292 292 292 292 292 292 296 298 299 299 300 299 299 298 298 299 299 298 299 299
290 292 288 289 290 289 289 288 289 290 289 289 289 290 286 286 284 287 288 289 289 288 287 288 288 288 289 289 289 289 289 290 290 290 289 290 290 290 290 291 290 290 291 291 291 291 291 291 292 292 293 293 293 293 293 294 294 293 293 293 293 294 292 293 292 292 292 292 293 294 293 293 293 293 293 293 293 292 292 292 292 292 292 293 294 296 299 299 299 299 299 300 299 298 297 297 299
292 292 290 289 289 287 288 290 290 289 289 289 288 284 284 284 286 287 289 289 288 287 287 287 288 288 288 288 289 289 289 289 289 290 290 290 290 290 290 291 292 292 292 292 292 291 291 292 292 293 293 293 294 293 293 293 293 294 294 294 294 293 293 292 292 293 292 292 293 293 293 293 292 292 292 293 292 292 292 291 292 291 292 293 293 293 292 292 294 296 297 298 298 297 296 295 295
289 288 291 287 286 284 288 288 288 288 288 290 289 284 284 285 286 288 289 289 288 286 287 287 287 287 288 288 288 288 289 289 289 289 290 290 290 291 291 291 291 292 292 292 291 292 292 292 292 292 293 293 293 293 293 293 293 293 293 293 294 294 294 293 293 293 292 292 293 292 293 293 292 292 292 292 292 291 291 291 291 291 292 292 292 292 292 292 292 291 291 292 296 297 297 297 295
288 287 284 287 286 285 286 289 287 285 289 290 289 285 284 285 286 288 289 288 288 286 287 287 287 287 288 288 288 288 288 289 289 290 290 290 290 291 291 291 291 291 291 292 292 292 292 292 293 292 292 292 292 293 293 293 292 293 293 294 293 294 293 293 293 293 293 293 292 293 293 293 293 292 292 292 291 291 291 290 290 291 292 292 291 291 291 290 291 291 291 291 289 292 294 295 296
288 287 284 284 285 285 286 287 289 287 285 289 287 285 283 283 287 288 289 288 287 286 286 287 287 287 288 288 288 288 288 288 289 289 290 290 291 291 291 290 291 291 291 291 291 292 291 292 292 292 291 292 292 292 293 293 293 292 292 293 292 293 292 292 292 293 293 293 292 292 293 293 293 293 292 292 291 291 291 290 291 292 292 291 291 291 290 291 290 291 290 291 291 290 291 292 293
284 286 283 282 282 284 284 286 289 288 287 287 288 287 284 286 286 287 288 288 287 286 286 286 287 288 288 288 288 288 288 288 288 289 289 290 291 290 291 291 291 291 291 291 291 291 291 292 292 292 292 292 292 292 292 292 292 293 293 293 293 292 293 293 293 293 293 292 292 292 293 292 292 293 292 292 291 291 291 291 291 291 291 291 291 290 290 290 290 290 289 290 291 291 290 290 290
283 283 283 282 283 283 283 283 285 287 287 286 286 286 284 285 286 287 287 288 287 286 287 287 287 287 288 288 288 288 288 288 288 289 290 290 290 291 291 291 291 291 291 291 291 291 292 292 292 292 292 292 292 292 293 293 292 292 293 293 293 292 293 293 292 292 292 292 292 292 292 292 292 293 292 292 291 291 291 291 291 291 291 290 290 289 289 290 290 290 289 289 290 290 291 291 290
282 283 283 283 283 282 282 284 287 286 284 284 284 284 283 284 285 286 287 288 287 287 287 287 287 287 288 288 288 288 288 288 290 290 291 291 291 291 291 291 291 291 290 290 291 291 291 291 292 291 291 291 292 292 292 292 292 291 290 291 291 291 292 292 292 291 292 291 292 292 292 292 292 292 292 292 292 291 291 290 291 291 291 290 289 289 288 288 289 289 289 288 289 289 290 290 290
285 285 285 283 283 282 284 285 287 287 284 283 283 283 283 284 284 286 287 287 287 287 286 287 287 287 287 288 288 288 288 288 291 291 291 291 291 291 292 292 291 291 290 290 290 291 291 290 291 290 291 291 291 291 291 290 290 289 290 290 289 290 290 291 291 291 291 291 292 291 292 291 292 292 292 291 291 291 291 290 290 291 290 290 289 289 290 290 290 289 289 289 288 287 288 289 289
285 285 285 283 285 283 284 285 287 287 284 283 282 282 283 284 285 286 287 286 285 286 286 286 287 287 288 288 287 288 289 290 291 290 290 290 291 291 292 292 292 290 290 290 289 290 290 291 290 290 291 291 290 291 290 290 291 289 289 289 289 289 290 289 289 290 290 291 291 291 291 291 291 291 291 291 291 291 290 290 290 290 290 290 290 290 290 290 290 289 289 287 289 287 287 288 289
286 285 285 284 284 284 286 285 286 286 284 284 283 282 283 284 285 286 286 286 287 288 288 287 287 287 287 288 288 288 288 289 289 290 290 290 291 291 291 291 291 291 290 290 290 290 290 291 291 291 290 291 290 291 290 289 291 290 290 289 289 289 291 291 290 290 291 291 291 291 291 291 291 291 291 291 290 290 290 289 289 289 290 290 289 289 289 289 289 288 289 287 286 288 288 289 288
286 285 284 282 283 282 282 285 285 286 284 284 283 282 284 285 286 286 287 287 287 288 288 288 289 288 287 288 288 288 288 288 288 289 289 290 291 291 291 290 290 291 290 290 289 289 289 290 290 290 291 291 290 290 290 291 291 291 291 290 290 290 289 290 291 291 291 290 290 291 291 290 290 290 290 290 290 290 290 289 289 289 289 290 289 288 288 288 288 288 288 288 288 285 286 287 289
284 285 284 283 282 283 282 283 284 285 284 284 283 282 282 285 283 283 286 288 287 287 288 288 288 289 290 290 290 289 288 288 288 288 289 289 289 290 290 290 291 290 290 290 290 289 289 290 290 291 291 290 290 290 290 290 291 290 290 290 291 290 290 290 289 288 289 289 289 289 289 290 290 289 290 290 290 289 290 289 289 289 289 289 289 288 288 288 289 289 289 288 287 286 285 286 287
283 282 282 281 281 280 282 282 283 283 282 283 282 278 281 285 284 284 286 286 285 287 286 286 287 288 288 288 288 289 290 291 290 289 289 290 290 290 290 291 290 290 290 290 291 290 290 290 290 291 291 291 290 290 290 290 290 289 288 287 286 287 286 286 286 286 287 287 287 289 289 289 289 289 289 289 289 289 289 289 289 289 289 289 289 289 289 289 289 288 288 288 287 288 286 285 285
281 280 281 282 281 280 281 281 282 279 279 282 282 278 277 285 282 284 285 285 284 286 285 286 287 287 288 288 288 289 289 289 290 290 290 290 290 290 290 290 291 290 290 291 291 290 290 290 290 291 290 291 291 290 290 290 289 289 288 287 287 287 285 287 287 288 287 288 288 288 288 289 289 289 289 289 289 289 289 289 289 289 289 289 289 288 288 288 288 288 289 288 287 288 287 285 285
281 280 282 281 280 280 281 281 282 282 284 285 281 283 278 278 284 285 285 284 284 284 285 285 286 287 287 288 288 289 289 289 289 290 290 290 290 290 290 291 291 291 291 291 291 290 290 290 290 290 291 291 290 290 290 290 288 289 288 288 288 287 286 286 287 287 288 288 287 287 288 288 289 289 288 289 289 289 289 289 289 288 288 288 288 288 288 288 288 289 289 289 288 288 287 285 285
281 281 282 281 281 281 281 281 283 283 280 279 282 282 278 278 283 282 283 281 282 283 284 285 286 287 287 288 288 289 289 290 290 290 290 290 290 291 291 291 292 292 291 291 290 290 291 291 291 291 290 290 290 290 290 290 290 288 288 288 287 287 287 287 287 287 287 288 287 287 287 287 288 288 288 288 289 288 289 288 288 288 288 288 288 288 288 288 288 287 287 287 287 287 287 287 286
282 282 283 282 282 282 282 283 283 282 278 277 280 281 277 278 284 282 281 281 282 283 285 286 286 287 287 287 288 289 289 290 290 290 290 291 291 291 292 291 291 291 291 292 291 291 291 291 290 290 290 290 290 290 290 290 289 289 288 287 287 286 287 286 287 286 286 287 286 286 286 286 287 287 287 288 288 288 288 288 288 287 288 288 288 288 288 287 287 287 287 287 287 287 287 287 286
283 282 282 282 282 282 282 283 282 280 274 278 276 278 278 275 282 283 281 283 284 285 285 286 287 287 288 288 288 289 289 289 290 290 291 291 292 292 292 290 290 290 291 291 291 291 291 290 290 289 290 290 290 290 290 290 289 289 288 288 287 286 286 286 285 285 285 285 285 285 286 286 286 286 287 287 287 288 287 288 287 287 287 288 288 287 287 286 286 286 287 287 286 286 286 286 286
282 282 281 281 280 280 280 279 281 275 275 275 277 276 278 273 279 282 285 284 283 284 284 285 285 286 287 288 288 288 288 288 288 289 289 290 290 291 292 290 289 289 290 290 290 291 290 290 290 289 289 290 291 291 290 290 289 289 289 288 287 287 286 285 285 284 285 284 285 285 285 285 285 286 286 286 286 287 287 287 287 287 287 287 287 287 287 287 286 286 286 285 285 286 286 286 286
284 281 282 278 277 277 274 275 273 274 275 275 276 277 274 275 280 284 283 284 285 286 285 286 286 286 287 288 288 288 288 288 288 289 289 290 290 290 290 291 290 290 290 290 290 290 290 290 290 289 289 290 290 291 290 290 289 289 288 288 287 287 287 286 285 285 285 285 285 284 284 284 284 285 285 285 286 286 286 286 286 286 286 286 287 287 286 286 286 285 285 285 285 285 285 285 284
281 280 278 277 274 272 270 274 272 273 275 275 275 277 273 280 283 283 283 284 283 282 284 285 286 287 287 287 288 287 288 288 288 288 289 289 290 290 290 290 290 290 290 291 291 291 291 290 290 289 289 290 290 290 290 289 289 289 289 288 288 287 286 286 286 285 285 285 285 284 284 284 284 284 284 285 285 286 286 286 286 286 286 286 287 286 286 286 286 285 284 284 284 285 285 285 285
281 280 279 278 276 272 269 272 272 273 274 276 276 274 275 278 280 281 282 282 282 283 283 286 287 288 287 287 287 287 287 287 288 288 288 288 288 289 289 290 290 291 291 291 291 291 291 291 290 290 289 290 290 290 290 289 289 289 289 289 288 288 287 286 286 286 286 285 285 285 284 284 284 284 284 285 286 286 286 286 286 286 286 286 286 286 286 285 285 284 284 284 284 285 285 285 285
280 281 281 279 276 279 273 272 272 271 272 273 273 275 281 280 281 282 282 283 283 283 284 285 285 285 285 285 285 286 286 286 287 287 287 288 289 289 289 290 290 290 291 291 291 291 291 291 291 290 290 289 289 289 289 289 289 289 289 289 288 288 288 287 287 287 286 286 285 284 284 284 284 284 285 285 285 286 285 285 285 285 286 285 285 285 285 284 284 284 283 283 283 285 284 284 284
281 281 278 277 281 277 274 269 266 266 269 271 278 277 280 283 281 281 282 282 282 282 282 283 283 284 284 284 285 285 286 286 287 287 287 287 288 288 288 289 289 289 290 290 290 291 291 290 290 289 289 290 289 289 289 289 289 289 289 289 288 288 287 287 286 286 286 286 285 285 284 284 285 285 285 285 285 285 285 285 285 285 285 285 285 285 284 284 284 283 283 283 283 284 284 284 284
282 278 279 281 278 277 275 272 271 271 269 272 274 274 277 276 276 281 281 280 281 282 282 282 283 283 283 284 285 286 286 286 286 286 287 287 288 288 288 289 289 289 289 290 290 290 291 290 290 289 289 288 289 289 289 289 289 289 289 289 288 288 287 287 287 286 286 285 285 285 285 284 284 285 285 285 285 285 285 285 284 284 284 285 284 284 284 284 283 283 283 283 283 284 283 283 283
281 279 283 277 274 273 275 272 268 268 268 269 273 274 274 276 278 281 280 280 281 282 283 282 282 283 283 284 285 286 286 286 286 286 287 287 288 288 288 288 289 290 290 290 290 290 290 290 290 289 289 289 289 289 289 289 289 289 289 288 288 288 288 287 287 287 286 285 284 284 284 284 284 284 284 284 284 284 284 284 284 284 284 284 284 284 284 283 283 282 282 282 283 283 283 282 283
280 282 280 280 278 275 273 274 272 272 268 267 270 271 273 279 279 279 280 280 280 280 281 281 282 283 283 283 284 285 286 286 286 286 287 287 288 288 288 288 289 289 289 289 289 289 289 289 289 290 290 290 290 289 289 289 289 289 289 288 288 288 288 287 287 286 285 285 284 284 284 284 284 284 284 284 284 284 284 283 283 283 283 283 283 283 283 283 282 282 282 281 282 282 282 281 281
279 279 278 277 277 278 277 274 273 272 269 268 267 267 274 279 281 280 280 280 280 280 280 281 282 283 284 285 285 286 286 286 286 286 287 287 288 288 289 289 289 289 289 289 289 289 289 289 289 289 289 289 289 289 289 289 289 289 288 287 287 287 287 287 286 286 285 285 284 284 284 284 284 284 284 283 283 283 283 283 283 283 283 282 282 282 283 282 282 281 281 281 281 281 281 281 281
278 278 277 277 276 274 271 270 273 270 270 268 266 267 274 280 281 281 280 281 281 281 281 282 283 283 284 284 285 285 285 286 286 287 287 287 288 288 288 289 289 288 288 288 289 289 288 288 289 289 289 289 288 288 289 289 289 288 288 287 287 287 287 286 286 285 285 284 284 284 284 284 283 283 284 283 283 283 283 283 283 282 282 282 282 282 282 282 281 280 280 281 281 280 280 280 281
Wind_Speed
10 8 7 2 2 2 4 2 4 3 4 3 4 2 4 2 4 3 7 1 7 8 10 16 15 11 12 14 18 14 14 11 11 5 7 7 18 10 17 14 14 10 7 7 3 5 6 6 6 2 8 9 10 11 9 8 6 1 5 8 9 9 8 6 6 7 6 5 6 5 4 3 3 3 3 4 4 2 1 1 1 3 3 3 4 4 5 6 5 8 6 6 9 8 6 7 10
9 8 5 3 2 3 2 2 3 3 2 5 3 1 4 5 2 8 7 8 4 4 6 12 15 17 18 16 15 11 16 14 11 7 4 16 20 16 29 18 12 10 8 8 6 3 5 8 7 3 13 6 10 10 9 9 7 6 7 8 8 7 7 6 5 6 5 4 4 4 3 3 2 2 3 4 4 5 9 6 2 4 3 3 4 5 5 1 4 6 6 7 8 9 6 9 10
8 7 2 3 4 3 2 2 4 4 5 6 5 4 4 3 7 8 8 7 4 5 10 12 15 11 13 12 15 11 7 14 22 21 6 19 20 19 28 24 17 14 10 6 7 5 5 8 4 6 8 5 7 8 8 9 9 10 10 7 7 7 6 6 5 5 5 5 3 4 4 3 2 4 5 4 4 4 6 8 6 2 2 3 4 4 6 5 5 4 7 8 9 9 7 8 9
7 4 4 3 3 3 3 3 4 4 7 3 7 4 5 6 7 8 7 7 2 5 5 7 10 11 13 15 12 2 11 12 13 16 9 15 12 17 19 18 15 13 14 12 7 7 8 10 13 11 8 5 4 6 10 10 10 10 10 9 8 7 6 5 5 5 5 4 3 3 4 5 4 5 5 7 6 7 5 7 7 7 3 3 5 5 9 2 6 7 6 8 9 10 10 9 9
5 2 3 4 3 5 3 0 1 3 3 2 4 4 6 7 7 7 6 7 7 7 11 10 10 11 18 16 11 6 10 14 6 14 9 10 17 18 18 17 16 16 16 14 13 11 10 14 10 10 10 3 11 11 7 9 9 8 9 8 6 6 5 5 5 4 5 5 4 4 5 6 6 8 7 6 7 7 8 8 7 7 5 4 5 5 6 4 6 8 9 7 8 8 8 9 9
3 2 1 4 2 3 1 4 3 5 6 4 1 4 7 8 8 7 4 8 13 8 5 5 7 6 8 10 10 7 12 8 15 11 16 13 21 19 18 15 17 19 17 15 15 11 16 22 19 14 18 8 10 2 10 8 8 8 8 7 7 6 6 6 6 6 5 4 4 5 5 7 8 7 9 9 9 8 7 7 8 7 8 9 8 8 6 2 5 7 7 8 8 8 8 8 8
2 4 2 4 3 2 3 4 5 5 7 5 5 5 9 9 8 7 5 11 10 13 12 16 19 16 14 6 12 10 12 12 8 13 15 16 16 15 17 16 16 19 18 15 13 13 20 24 22 23 22 21 8 9 9 10 8 8 7 7 6 7 6 7 7 7 6 5 6 6 7 8 9 9 7 8 8 8 8 10 9 9 10 9 9 9 7 5 3 3 7 9 8 8 8 8 8
2 4 2 6 4 2 4 6 6 2 5 7 7 6 9 9 8 3 5 5 5 6 10 8 11 18 13 13 7 5 12 11 8 11 15 13 14 16 18 16 18 18 17 16 15 13 20 28 25 24 25 25 24 17 15 13 11 8 7 6 7 7 8 9 10 10 12 11 11 11 9 9 9 9 8 7 7 8 7 6 8 10 11 10 11 10 8 7 4 5 6 7 8 9 9 9 9
1 2 1 3 5 3 6 6 8 7 7 7 8 8 8 8 8 6 11 9 9 13 16 6 4 10 5 11 11 8 10 16 11 8 13 15 16 19 15 20 18 14 17 16 15 14 14 23 26 25 25 26 28 28 28 27 26 24 18 13 10 7 6 6 7 7 7 6 7 8 8 6 5 6 7 6 6 6 6 8 5 5 10 11 11 12 10 8 6 6 7 7 8 9 8 8 8
2 3 7 3 6 7 8 6 6 6 7 8 10 11 11 8 9 10 11 13 11 12 12 16 19 19 12 12 5 13 13 17 16 14 16 16 16 17 19 20 20 18 17 16 16 15 14 21 26 26 25 26 28 29 27 31 32 30 32 32 30 24 17 12 9 7 6 5 8 8 8 7 5 6 5 6 6 5 5 4 5 5 6 11 15 14 10 11 9 9 9 8 10 10 9 9 8
5 1 3 6 7 8 8 8 8 7 8 6 11 12 11 8 8 12 12 14 12 10 13 10 16 14 14 11 11 5 12 16 17 18 20 20 16 18 17 17 18 21 18 18 16 16 16 16 24 24 24 23 25 28 30 31 32 31 31 30 29 30 30 30 30 28 25 20 17 17 14 8 6 6 5 4 4 3 4 5 4 4 7 8 9 12 11 9 11 10 10 9 10 11 12 9 8
5 5 4 7 7 7 7 10 9 9 9 10 10 13 9 10 8 12 13 13 11 14 14 15 4 7 16 9 7 7 9 14 15 15 16 18 17 18 18 14 17 20 22 18 18 18 17 17 16 21 23 24 27 27 29 29 29 30 30 29 29 28 29 28 27 27 27 26 26 27 24 18 12 8 7 5 4 4 4 5 6 8 8 8 7 7 14 15 11 10 10 9 11 10 12 11 11
2 2 7 4 3 6 10 10 8 9 8 11 9 10 7 12 13 9 11 13 14 13 15 18 7 4 8 8 4 6 11 13 11 12 14 14 14 14 14 16 19 18 20 21 24 21 17 17 17 17 21 25 23 26 29 29 29 30 31 30 30 29 28 27 26 28 27 27 28 28 29 32 31 26 20 15 10 7 6 7 7 7 9 10 10 7 7 10 12 13 12 11 10 8 9 12 12
1 1 3 6 2 8 6 7 7 7 8 7 8 7 11 10 11 10 8 17 15 13 9 15 7 11 14 4 6 7 9 13 8 9 9 13 12 12 14 14 18 21 18 22 22 21 21 17 15 18 19 20 18 19 25 28 27 29 31 30 31 30 29 28 27 27 27 27 27 26 27 28 27 29 28 31 31 30 25 18 15 11 10 11 12 10 10 8 8 12 13 12 10 10 11 12 13
3 1 5 6 6 7 4 5 6 9 8 7 7 10 10 11 11 15 15 13 16 6 3 17 7 2 4 6 3 8 11 11 9 6 4 6 13 14 13 14 17 17 19 20 20 20 20 18 18 16 20 18 19 16 15 21 28 27 28 29 30 30 30 30 29 27 28 27 27 26 25 24 24 27 27 27 28 30 30 28 31 29 23 19 14 12 13 11 10 7 7 12 15 14 12 10 10
2 2 4 7 7 7 6 8 6 10 7 4 2 5 16 16 12 18 13 12 11 16 16 10 19 9 8 10 5 8 11 8 7 7 6 3 3 9 14 16 15 11 15 18 18 18 17 17 13 15 16 17 15 15 16 19 24 27 27 28 29 28 28 28 29 29 29 28 26 26 25 21 22 21 27 21 25 27 30 28 31 30 33 33 27 21 16 14 13 13 11 9 9 14 16 12 11
2 1 8 6 8 5 4 4 3 6 8 5 5 4 8 13 14 19 13 14 21 17 20 16 13 10 12 10 8 10 11 11 7 6 6 7 6 8 10 12 7 11 13 17 17 15 17 18 19 13 12 15 15 13 13 16 19 23 21 24 25 26 26 26 27 27 25 26 25 25 22 19 18 17 19 17 21 20 27 28 28 29 30 30 31 31 28 25 19 16 15 13 13 11 11 11 11
3 5 9 10 7 8 6 6 6 9 9 8 7 5 10 13 8 7 10 19 19 18 19 14 14 13 10 8 7 7 9 12 11 10 10 10 9 10 12 12 13 15 14 13 16 16 15 15 16 16 10 13 12 8 10 12 13 18 17 16 18 20 23 23 21 20 21 18 24 20 18 17 16 15 16 19 15 19 21 28 27 27 28 28 29 27 27 28 28 23 20 17 13 11 9 7 8
9 7 9 10 6 5 3 7 8 9 11 11 11 10 11 12 6 4 13 14 13 17 17 13 14 13 11 10 10 11 10 11 13 13 14 16 14 15 12 11 13 14 15 13 13 17 14 13 15 15 14 12 12 12 10 11 14 12 13 13 13 18 19 22 19 19 17 17 16 16 15 14 14 13 15 17 16 21 22 26 27 26 26 27 28 24 23 24 25 25 25 21 18 13 10 8 7
13 7 12 11 8 12 13 11 13 12 13 14 14 13 17 12 9 7 17 14 16 18 10 12 13 13 12 11 11 11 12 12 12 14 18 17 14 13 13 13 12 14 14 13 12 13 15 13 13 14 15 15 13 12 11 13 12 12 11 11 12 13 14 14 16 17 16 17 15 14 13 13 12 12 17 22 18 16 17 23 26 24 25 25 28 18 21 21 23 23 23 24 14 9 10 9 8
6 10 9 9 8 12 10 10 9 10 12 14 14 12 18 16 13 5 5 12 16 13 12 10 10 10 10 10 11 10 10 12 13 14 15 17 16 13 13 13 13 12 11 10 11 13 15 16 13 13 13 13 13 11 12 12 12 12 13 13 12 12 12 12 12 13 15 15 15 13 13 13 11 11 13 14 13 13 13 15 16 16 16 17 22 16 15 15 16 15 14 16 14 14 13 12 12
12 15 12 11 10 14 9 9 9 9 7 11 10 11 10 8 18 18 14 14 9 8 9 8 8 8 8 8 7 8 10 11 14 15 17 16 15 14 14 13 13 13 12 13 14 13 14 12 13 11 12 13 13 11 11 11 12 12 12 13 12 12 13 13 13 14 14 14 12 13 12 11 11 11 12 13 13 13 13 12 11 10 13 14 15 14 14 15 14 13 14 14 14 13 13 14 13
18 12 14 13 9 13 8 10 8 6 10 11 13 12 13 14 14 15 16 17 11 9 8 8 8 8 8 8 8 9 10 11 13 15 15 16 16 15 12 10 8 9 8 10 10 11 12 13 13 12 12 11 14 12 10 10 11 11 11 12 12 12 12 13 12 12 13 13 13 12 11 11 11 10 11 11 12 12 12 12 12 11 11 11 10 10 13 14 13 13 13 13 13 13 14 14 14
21 12 14 16 15 17 13 13 11 12 15 16 14 12 12 9 19 10 16 13 11 10 9 8 8 8 8 10 9 11 10 12 13 13 13 14 13 12 11 9 7 8 9 9 9 9 10 13 12 12 11 11 11 12 12 11 11 11 11 11 11 11 11 11 11 11 11 12 14 13 12 11 10 10 10 10 8 7 9 10 10 11 11 11 11 12 12 11 11 12 13 14 14 13 14 14 13
17 16 13 14 14 14 12 11 12 13 15 12 14 19 16 16 13 11 15 12 10 10 9 9 8 8 9 10 10 10 12 12 13 13 12 10 12 12 12 9 10 9 10 9 7 9 11 10 12 12 11 12 10 10 12 10 10 10 10 11 11 11 10 10 10 10 10 10 11 12 12 11 11 10 9 9 9 9 7 8 9 9 9 10 11 10 10 11 11 11 10 12 13 13 12 13 14
13 18 15 14 14 13 12 13 11 9 5 8 19 14 8 7 10 17 11 10 8 8 8 8 8 9 9 10 10 10 11 12 12 12 11 10 11 13 13 11 11 12 11 10 10 9 10 11 13 13 12 11 11 10 10 10 10 10 10 11 10 10 10 10 10 10 10 10 11 12 12 10 10 9 9 9 9 8 7 6 6 7 8 8 9 10 11 11 12 12 12 11 11 12 12 11 11
14 18 16 16 12 11 9 12 10 11 13 11 16 12 11 7 5 8 8 8 6 6 8 8 8 10 10 9 8 8 10 11 12 10 11 11 11 12 12 12 12 12 12 12 10 9 9 11 11 12 12 11 9 10 9 10 10 10 9 9 9 9 9 9 9 9 10 11 10 11 11 11 10 9 10 10 9 9 9 7 7 6 6 6 6 6 6 8 9 10 12 12 12 12 11 10 10
16 18 17 16 14 12 8 7 6 2 7 6 15 15 13 10 12 8 5 6 6 6 7 7 7 8 8 8 8 8 8 9 8 10 12 11 9 9 10 9 10 10 10 10 8 8 9 11 11 12 12 11 10 10 8 8 8 8 8 7 8 8 9 8 9 9 10 11 11 11 11 11 11 10 10 10 10 10 10 10 9 10 9 7 5 5 6 5 6 7 9 10 11 11 11 10 10
4 4 15 12 10 11 13 7 6 3 6 3 5 8 12 12 7 6 5 5 4 5 6 6 7 7 7 7 7 7 8 8 8 9 10 10 9 9 11 9 8 8 7 9 9 9 9 9 9 11 11 11 11 11 10 9 9 8 8 8 8 7 8 8 9 9 9 10 10 11 11 12 11 11 10 11 10 9 10 10 11 10 10 9 9 7 5 4 4 6 7 6 7 9 10 11 11
2 6 8 10 7 9 13 5 7 3 3 6 2 3 4 4 4 4 3 3 3 5 5 5 5 5 5 6 6 7 7 8 9 9 8 8 8 9 10 9 9 8 7 7 9 11 8 6 7 8 10 11 11 10 10 9 9 9 8 8 8 8 8 8 9 8 8 8 9 10 10 11 10 10 10 9 9 9 9 10 10 10 9 10 10 11 11 9 8 7 7 6 6 7 9 11 12
5 0 2 3 2 4 8 7 10 2 3 5 3 2 4 3 3 3 3 3 3 5 5 5 4 4 5 5 6 7 8 8 9 9 9 8 8 8 9 9 9 8 7 8 10 10 10 9 7 7 9 10 10 10 10 9 8 8 8 8 8 8 8 8 7 7 8 8 8 9 9 10 10 10 9 9 9 9 9 9 10 10 10 10 9 10 11 11 11 11 10 11 9 6 7 6 8
3 2 4 1 1 3 2 8 10 3 1 6 5 2 4 6 6 5 3 3 2 4 4 4 3 4 4 4 6 7 7 7 8 8 8 8 7 7 8 9 8 8 8 7 7 8 9 9 9 8 9 10 10 10 9 9 9 8 7 7 7 8 7 8 8 7 8 7 8 8 9 9 10 11 10 9 8 9 9 9 9 10 10 9 9 9 10 11 12 11 11 11 12 12 11 9 7
4 3 4 2 1 3 3 7 8 5 5 2 5 0 6 4 6 5 3 3 2 2 3 3 3 3 3 4 4 5 6 6 7 7 7 6 7 6 7 8 8 8 8 8 8 8 9 9 9 10 10 10 10 10 9 8 8 8 8 8 8 8 7 7 7 7 7 8 8 8 9 8 9 9 9 9 8 8 8 9 8 10 9 9 8 9 9 9 11 11 12 12 11 12 12 14 13
4 4 4 3 2 1 2 1 10 10 4 2 2 4 5 5 9 7 5 5 4 3 3 3 2 1 2 3 3 4 4 5 5 6 6 6 6 7 7 7 7 7 7 7 7 7 7 7 7 7 7 7 7 7 6 6 6 6 6 5 6 6 6 6 6 6 6 7 7 7 8 8 9 9 9 8 8 8 7 8 8 9 9 9 9 10 10 10 10 11 12 12 12 12 12 13 14
3 4 5 4 3 6 4 3 8 10 4 2 2 4 6 7 8 8 8 6 5 5 4 3 3 2 1 2 2 3 3 4 4 3 3 4 4 4 4 5 5 5 5 6 6 6 6 5 5 6 6 6 5 5 5 5 5 5 5 4 5 5 5 5 5 6 6 6 7 7 7 8 8 8 9 9 8 8 8 8 8 9 9 8 9 10 10 11 11 11 11 12 11 10 11 12 13
3 2 4 3 3 2 2 3 4 7 5 2 2 2 6 7 8 8 8 7 7 6 5 4 4 4 3 3 3 2 2 4 3 2 0 2 2 2 2 3 3 4 4 5 5 5 5 5 5 5 6 5 5 5 5 5 5 5 6 6 5 5 5 5 5 5 6 6 6 7 7 7 8 8 9 9 9 9 9 9 9 9 9 9 9 9 9 9 12 13 12 12 12 11 10 10 12
2 4 5 4 5 4 2 2 3 2 4 1 3 2 4 8 9 9 8 7 7 7 7 6 5 5 4 3 3 2 2 2 2 1 1 1 1 1 1 1 1 2 4 4 4 4 4 4 4 5 4 5 5 5 5 5 6 6 5 6 6 5 5 5 4 5 5 5 6 7 7 7 8 9 9 10 9 9 9 9 9 9 9 8 9 9 9 10 9 9 10 10 13 13 11 10 11
2 3 2 3 2 2 1 3 4 2 3 2 2 3 6 8 8 9 9 9 11 10 9 8 7 6 5 5 4 4 3 2 3 3 3 3 1 1 1 1 1 1 3 3 4 3 3 3 3 3 4 4 5 5 4 5 4 5 5 5 5 5 5 5 5 5 5 5 6 6 7 7 8 8 9 10 9 9 10 9 9 9 9 9 9 9 9 9 10 10 9 10 9 11 11 11 11
1 1 1 1 2 4 3 2 3 2 4 3 4 6 9 11 11 10 11 12 10 10 10 9 8 8 6 6 6 5 4 5 4 4 3 3 3 2 1 1 1 1 1 1 2 3 3 2 2 3 3 4 3 4 4 4 4 4 4 5 4 5 3 3 4 4 4 5 6 6 7 7 8 8 9 9 8 9 9 9 9 9 10 9 10 10 10 10 10 11 11 10 11 8 9 8 11
1 1 3 2 3 4 0 3 4 2 3 4 4 9 9 10 12 13 14 13 11 10 10 10 8 9 9 8 7 6 6 5 5 5 5 4 4 4 3 2 1 2 2 1 1 3 3 3 3 3 3 3 3 3 4 4 4 5 5 5 5 4 5 4 3 3 5 6 7 6 7 8 9 8 9 9 9 9 10 10 9 9 9 9 9 10 10 10 10 10 10 10 10 12 9 9 7
2 2 2 1 2 1 3 3 5 4 2 3 2 8 11 12 13 13 14 14 12 12 11 11 10 9 8 5 5 7 7 6 5 5 5 5 5 5 4 3 2 3 3 2 3 3 2 4 4 5 4 4 3 4 4 5 5 5 5 5 4 5 4 4 5 6 6 6 7 7 8 8 9 9 9 10 10 10 10 10 10 10 10 10 9 9 10 10 11 10 11 11 11 11 13 10 10
3 2 2 1 0 4 4 5 5 4 5 4 4 6 4 5 14 15 11 11 14 14 14 15 14 12 10 10 10 9 8 7 7 7 6 5 5 5 5 5 5 4 4 3 3 4 5 5 5 5 5 5 4 5 4 5 5 4 5 6 7 6 7 7 8 9 8 8 8 8 8 9 9 9 9 10 10 10 10 11 10 10 11 10 9 10 10 10 10 10 10 10 11 11 12 12 12
4 2 1 1 2 4 5 5 3 4 5 3 2 4 8 3 6 11 12 14 17 13 15 14 13 12 11 10 9 9 9 8 8 8 8 8 7 6 7 7 6 6 5 4 5 6 7 7 7 7 6 6 5 5 5 5 5 5 6 6 6 6 7 7 7 7 8 8 7 9 9 8 8 9 9 9 9 10 10 10 11 11 11 10 10 10 10 10 10 10 10 10 11 11 11 12 13
1 2 2 2 5 7 6 5 6 6 3 3 5 5 8 11 6 2 6 12 13 14 14 14 13 12 11 10 9 9 8 8 7 8 9 8 7 7 8 7 7 7 6 5 6 7 8 8 8 8 7 7 6 6 6 5 5 6 6 6 6 6 7 8 8 8 8 8 8 9 8 8 9 8 9 9 10 10 10 10 10 11 11 11 10 10 10 10 10 10 11 11 11 10 11 11 13
3 1 3 6 6 6 4 5 3 2 4 6 5 3 5 6 2 4 2 7 10 14 14 14 14 12 11 11 9 9 9 9 8 8 9 9 8 8 8 7 7 7 7 7 7 7 7 8 9 9 9 9 8 8 7 7 6 6 6 6 7 6 7 7 8 8 8 9 10 9 9 9 9 9 9 10 10 11 10 11 12 11 11 11 10 10 10 11 12 12 12 11 11 11 11 12 13
3 3 1 1 1 2 2 2 3 2 2 6 3 3 5 10 2 2 2 4 8 12 14 14 14 14 12 11 10 9 8 8 8 9 10 10 9 9 8 7 7 7 7 7 8 7 8 8 9 11 12 9 9 9 8 9 8 7 7 7 8 8 7 8 8 9 9 9 10 10 10 9 9 9 9 10 10 10 11 11 11 12 12 12 11 11 12 12 12 12 13 13 13 14 12 13 13
4 1 4 3 2 1 1 1 1 1 4 2 3 1 2 6 1 0 3 0 2 3 4 9 12 14 14 11 9 7 7 7 7 8 9 9 9 9 8 9 9 8 7 8 8 8 8 9 10 12 12 10 10 10 9 10 9 8 8 8 9 10 10 9 9 9 9 10 10 11 10 10 10 10 10 10 10 11 11 12 11 12 12 11 11 11 11 11 12 12 13 14 14 15 13 14 15
2 2 3 4 4 2 2 1 1 2 2 4 2 1 3 5 1 3 1 2 2 3 5 7 12 14 12 10 8 7 6 6 6 6 8 8 8 9 8 10 10 10 9 9 9 9 9 10 10 12 13 13 11 10 10 10 9 9 10 10 11 10 10 9 10 11 11 12 11 11 10 10 10 10 10 10 10 11 11 11 12 12 12 12 12 11 11 11 12 12 12 12 13 14 15 15 15
3 5 4 4 1 1 2 3 2 3 2 3 2 4 5 12 12 5 3 5 5 5 6 6 7 10 12 10 7 5 5 4 5 5 6 7 7 9 10 11 11 11 10 11 11 10 10 10 12 12 13 13 13 12 11 12 11 11 11 11 11 10 10 11 11 11 11 11 10 11 11 11 11 11 10 11 12 13 11 12 12 12 12 12 12 12 12 13 13 12 13 14 14 15 14 15 15
6 5 5 4 5 2 3 2 0 3 3 1 1 4 8 10 4 6 6 7 5 6 6 6 5 9 11 9 7 5 4 4 4 5 5 6 7 8 10 10 12 11 12 12 11 10 10 10 12 13 14 14 14 13 13 12 13 12 12 12 11 10 11 11 10 10 11 10 10 11 11 11 12 12 12 12 12 13 12 12 13 13 13 14 14 14 13 13 13 13 14 14 15 15 15 17 17
4 2 4 2 1 3 5 2 3 3 4 2 2 2 4 3 4 4 4 5 5 4 3 1 3 7 6 4 2 3 4 4 3 5 6 7 9 10 9 10 10 11 12 12 10 10 10 10 11 13 14 15 15 14 13 14 13 12 12 11 11 10 11 10 10 10 10 11 11 11 12 12 12 13 13 13 13 14 14 13 14 14 14 14 14 14 12 13 14 14 13 14 14 14 15 16 16
1 1 3 1 2 2 5 3 4 3 4 6 4 5 2 2 4 4 2 3 4 4 4 4 5 4 2 4 4 4 4 5 6 8 9 11 11 10 9 9 9 10 11 10 11 11 10 11 12 14 15 15 15 15 14 14 13 12 13 13 14 13 12 11 10 10 10 11 12 12 13 13 13 13 14 14 14 14 14 15 14 14 14 14 14 14 14 13 14 14 14 14 15 12 15 17 17
2 2 2 2 1 1 1 3 3 2 3 6 1 7 6 3 4 6 3 3 4 2 2 1 4 2 1 3 4 5 5 5 7 9 10 13 13 12 11 11 10 11 10 10 12 12 13 13 12 14 14 14 14 14 14 13 13 13 14 14 13 13 13 14 13 14 14 13 13 12 13 14 14 14 14 13 14 14 14 14 14 15 14 14 14 14 15 14 14 14 14 15 15 15 16 18 16
3 1 4 4 2 1 0 4 1 3 4 3 1 6 11 5 4 1 3 1 2 3 5 2 2 1 4 5 5 5 6 8 11 12 12 12 11 12 12 10 11 11 12 12 13 13 11 11 12 13 13 14 14 15 14 13 14 14 14 14 14 15 14 15 14 14 13 13 13 13 13 14 14 14 14 14 15 16 15 15 15 15 14 14 14 14 14 15 15 14 15 15 15 15 17 17 17
4 2 2 4 0 1 2 1 3 4 4 5 4 8 11 5 5 2 5 7 8 5 3 4 5 5 5 6 8 8 9 9 10 11 11 10 10 12 12 12 13 12 12 12 12 12 11 12 12 11 14 14 14 12 12 12 13 11 10 13 15 15 15 15 13 13 13 14 15 15 15 16 16 16 16 16 16 16 15 15 14 15 14 15 15 14 15 14 14 14 15 14 15 16 16 17 18
2 1 2 3 1 1 2 1 2 0 7 5 3 2 8 3 1 3 5 8 7 7 6 5 6 7 8 9 10 11 11 11 12 13 12 12 12 12 13 13 14 14 14 13 13 12 13 13 13 13 13 13 13 14 14 14 13 12 12 13 14 14 15 15 14 13 13 15 16 16 17 18 17 16 16 18 16 16 16 16 15 15 16 15 15 15 15 15 15 14 15 16 16 19 19 19 20
2 1 0 1 1 0 1 1 2 2 5 3 6 7 3 2 2 3 5 5 5 4 3 3 3 4 6 8 10 10 11 12 13 13 13 13 13 13 13 13 12 12 12 11 11 12 12 12 13 14 15 15 15 15 15 14 13 13 14 16 16 16 17 15 15 14 14 15 16 16 16 17 17 17 17 17 17 17 17 16 17 16 16 16 16 16 15 15 15 17 17 19 19 19 20 18 18
2 2 2 2 2 2 3 4 4 1 2 3 2 12 9 4 3 2 3 3 4 1 2 7 8 11 12 11 12 13 13 13 14 14 13 13 13 13 14 13 11 11 12 13 13 12 13 13 13 13 13 13 14 15 14 15 14 13 15 16 18 17 16 15 15 14 15 16 16 16 17 18 18 19 18 18 18 17 16 17 17 17 17 17 17 17 17 15 16 19 20 16 17 19 20 21 19
Wind_Direction
317 325 319 302 241 242 221 194 244 146 230 141 130 233 82 328 340 357 50 23 83 50 45 57 63 77 82 90 90 89 58 38 12 10 57 3 337 347 357 344 338 347 359 59 92 102 74 45 82 289 75 82 96 90 98 125 151 129 91 84 78 83 73 62 55 72 62 21 75 68 91 82 75 58 46 21 346 9 57 122 291 133 222 232 249 255 270 309 98 102 72 62 86 85 98 116 116
321 320 296 244 230 223 171 310 276 167 159 147 92 20 44 324 332 30 29 25 17 65 67 73 75 81 90 101 104 90 43 33 25 350 304 7 340 356 339 330 340 347 21 34 63 32 87 89 99 70 80 64 60 49 64 79 114 124 84 87 87 79 67 67 60 61 67 50 56 40 16 58 48 44 7 350 356 327 327 341 292 145 210 230 223 250 278 164 94 100 112 102 100 108 132 136 139
318 315 242 211 202 275 111 235 232 201 190 175 114 51 335 8 30 21 17 13 40 129 103 78 50 43 73 63 58 43 51 5 12 4 349 356 3 344 335 352 357 7 14 65 21 94 74 50 60 64 90 86 104 139 118 83 63 52 56 67 72 71 66 54 50 57 62 66 56 19 344 16 345 22 354 338 338 338 324 322 332 99 219 266 253 264 288 157 131 115 124 133 129 128 148 152 143
299 258 288 225 161 254 202 195 254 223 215 130 127 66 19 357 12 4 20 15 14 143 182 58 50 17 69 44 359 51 33 5 18 353 352 351 350 323 324 343 11 18 14 1 41 34 56 11 35 35 26 44 8 40 77 78 70 59 57 53 51 50 58 53 41 40 51 68 53 2 340 342 28 4 352 342 347 327 326 325 332 330 337 257 273 281 312 194 146 135 140 146 149 156 165 160 155
286 203 270 255 249 173 218 73 345 256 195 60 104 80 13 6 348 354 23 30 94 150 115 119 94 69 75 57 13 46 329 310 4 4 339 319 332 337 329 338 11 22 17 7 20 26 30 21 30 12 14 75 45 356 49 72 76 76 66 56 51 60 38 43 47 38 29 28 20 0 336 335 348 12 347 342 339 335 335 322 328 318 327 339 302 292 297 253 167 149 151 157 169 170 164 160 164
245 233 185 263 276 19 196 182 156 79 41 339 81 35 355 1 343 339 19 71 70 70 150 125 108 136 52 49 45 62 359 11 334 352 342 328 333 335 339 4 19 21 9 11 16 18 20 21 27 36 27 31 118 198 53 64 71 63 61 59 49 44 33 33 30 31 7 0 351 349 345 342 343 0 350 353 350 338 333 322 321 324 328 317 312 312 321 88 222 155 160 171 181 175 171 167 172
236 192 150 139 124 260 224 138 102 94 58 11 35 4 357 354 347 319 123 94 63 63 64 100 113 115 88 141 80 58 35 17 5 346 342 323 322 338 358 12 25 21 13 11 11 18 23 21 22 34 34 32 32 58 61 50 52 52 57 53 46 33 30 23 17 8 8 359 358 351 344 345 346 352 5 345 357 341 331 334 322 325 333 320 311 309 304 253 266 189 185 186 187 183 177 178 184
276 253 134 202 119 191 124 104 87 50 75 39 31 8 359 0 352 11 92 111 31 64 35 80 76 91 74 52 92 35 28 30 24 357 351 347 345 3 13 14 24 20 15 16 14 16 22 21 24 27 32 36 38 35 27 22 21 35 38 44 47 47 38 35 21 22 20 9 3 2 7 10 6 359 358 1 350 347 344 323 330 337 312 321 318 304 299 292 246 229 232 226 202 203 181 188 192
230 251 330 186 141 93 124 106 98 71 84 39 38 27 12 11 15 71 76 80 88 49 39 27 197 73 85 88 76 37 20 1 349 337 353 349 10 18 21 21 21 13 19 18 12 18 23 21 24 29 33 36 40 43 44 46 44 38 30 20 9 30 47 43 32 30 42 353 353 354 337 357 2 349 343 358 357 351 359 350 318 300 313 333 324 301 302 294 288 262 249 251 255 233 203 193 195
147 268 170 199 133 142 123 126 121 65 64 47 33 22 13 12 39 54 79 67 65 73 40 47 69 91 93 61 81 27 10 4 2 1 355 354 9 18 24 25 24 19 21 20 20 21 23 22 24 24 27 36 42 40 40 44 42 44 45 48 45 35 18 17 17 13 25 5 342 330 338 337 353 351 353 0 5 2 351 351 340 337 335 319 324 321 305 316 292 265 254 246 258 253 220 200 196
165 63 336 163 180 148 162 123 106 93 62 60 42 22 13 21 45 56 63 72 56 57 32 2 71 80 80 64 59 30 26 15 14 14 8 7 9 21 20 20 27 30 26 24 24 27 28 23 25 22 23 29 41 43 43 44 45 45 44 44 44 44 44 42 41 37 29 24 6 349 330 323 345 353 4 2 357 356 343 350 356 320 302 299 284 290 321 304 287 280 259 251 249 248 243 227 216
156 183 176 189 175 175 126 119 109 98 71 43 41 19 16 27 47 49 40 54 43 54 41 8 70 86 67 68 41 15 17 26 18 9 10 14 15 17 25 22 24 35 32 31 31 27 29 27 25 20 22 32 37 41 45 43 43 43 42 41 39 41 41 39 39 38 35 33 31 28 19 352 337 352 358 353 346 350 350 356 343 326 316 308 301 341 328 316 310 304 288 259 251 250 261 256 249
178 146 173 130 52 101 109 110 109 98 64 38 22 19 14 42 42 52 58 54 39 47 22 352 26 12 82 48 12 5 20 17 23 6 15 17 19 16 24 30 28 28 35 31 37 29 21 32 29 26 25 30 29 36 45 45 44 44 43 41 40 38 37 36 36 36 33 31 32 31 31 34 27 11 359 352 350 351 347 340 338 326 323 319 312 296 303 327 318 313 311 295 265 265 264 275 283
161 14 106 105 46 95 101 100 129 107 63 53 40 38 39 54 43 44 59 50 29 53 40 360 46 75 68 108 19 6 3 355 4 13 17 24 21 22 26 27 34 29 28 38 38 33 31 17 25 27 25 28 29 34 40 44 45 44 45 41 40 39 36 34 33 33 31 31 32 30 32 33 29 24 25 28 24 19 8 354 341 329 323 321 318 310 298 316 355 330 315 306 296 271 259 256 260
87 237 89 105 107 107 37 140 108 105 93 76 59 54 62 54 64 61 46 68 41 12 264 25 336 301 23 30 3 344 329 350 354 10 11 23 35 30 17 32 36 32 30 35 39 37 35 28 21 30 32 32 31 30 34 40 44 45 45 44 42 41 40 36 34 32 30 30 31 32 31 29 27 27 24 25 23 22 19 19 15 7 346 328 326 321 316 318 316 303 305 318 321 308 296 294 283
63 136 102 121 116 115 80 100 107 101 106 95 92 66 71 59 46 61 44 74 83 54 60 36 33 69 82 64 22 348 341 315 347 341 346 275 24 47 36 29 31 32 39 33 35 36 36 34 34 30 29 33 38 32 35 42 43 43 45 46 43 40 39 38 37 35 33 27 28 29 30 32 29 26 21 23 25 26 23 21 18 17 18 11 355 333 326 318 305 295 293 288 285 307 310 302 297
274 165 105 111 107 106 76 115 149 106 115 105 79 99 89 76 66 73 69 69 75 61 68 55 65 61 66 67 53 21 10 2 348 354 15 35 33 36 39 40 4 36 37 33 30 26 30 35 33 32 25 33 30 27 34 43 44 45 45 45 44 43 41 40 39 38 35 31 28 26 28 30 29 25 18 18 23 26 26 21 18 18 17 13 9 9 359 343 322 310 299 290 291 290 304 319 314
326 58 104 77 73 75 29 57 66 106 111 92 73 80 93 92 84 92 75 67 73 76 71 72 72 67 62 56 40 25 19 23 23 32 42 46 39 37 39 34 27 33 30 32 33 27 26 28 32 36 28 24 33 32 33 41 42 41 39 41 42 41 42 43 42 41 38 37 34 32 32 31 27 23 22 19 24 23 22 18 17 16 14 13 12 10 4 5 358 340 317 305 293 280 284 292 279
54 74 72 89 47 54 51 75 89 106 95 93 80 70 76 65 77 65 92 62 70 73 64 66 70 60 55 46 38 33 24 32 37 38 44 46 43 43 40 39 36 33 36 32 33 33 28 28 28 28 29 34 37 30 30 34 37 40 38 36 39 42 45 45 44 41 39 37 38 39 36 32 27 24 23 24 26 24 22 18 17 14 12 13 9 6 6 4 357 359 351 327 304 293 280 273 275
20 83 78 72 84 83 67 77 82 87 106 96 86 70 67 52 65 78 83 80 59 54 51 50 52 52 47 47 42 37 32 33 42 49 51 47 39 42 43 40 42 42 41 37 32 29 30 28 26 28 29 31 34 36 32 34 31 34 36 37 38 40 41 43 43 41 41 40 38 36 37 35 29 26 24 24 24 24 21 20 17 14 12 12 5 4 1 2 359 1 357 351 328 314 304 305 299
1 65 83 105 99 90 57 69 71 82 90 94 88 86 70 49 47 51 120 75 54 58 44 46 51 50 49 52 48 44 38 44 47 49 57 60 53 42 39 38 37 39 40 40 38 32 28 23 18 28 30 32 34 34 35 36 35 38 36 35 36 38 38 38 37 36 36 37 38 39 37 34 30 29 29 26 27 24 23 24 21 19 13 10 4 6 1 357 360 360 1 358 354 344 338 321 311
87 63 82 94 99 86 75 71 65 78 81 89 82 70 80 72 47 45 53 81 59 43 45 47 54 52 51 56 55 57 55 53 54 54 54 56 59 59 51 47 40 42 34 36 28 30 31 27 21 23 30 36 38 37 39 38 36 38 37 36 37 37 37 35 36 36 32 32 34 36 36 38 36 33 27 27 25 21 24 21 21 23 23 15 10 7 1 359 356 358 1 1 356 353 345 338 333
90 61 60 64 78 95 80 80 59 88 94 81 79 77 87 83 75 54 60 66 72 59 60 61 61 62 66 58 56 58 59 63 66 60 58 56 51 52 51 43 39 36 30 39 27 22 22 28 29 28 33 35 41 42 44 44 42 40 40 38 38 36 39 38 41 42 40 30 30 27 29 30 30 30 31 30 29 24 24 18 19 22 19 17 9 9 5 3 358 353 352 354 353 354 351 348 343
91 92 78 71 74 80 82 75 77 80 83 80 86 85 71 83 73 51 64 61 64 61 62 60 61 64 69 76 69 66 59 58 61 64 62 63 63 58 57 51 29 39 46 45 42 23 21 27 28 30 32 37 40 40 43 44 46 43 42 40 39 38 41 43 43 41 38 37 33 33 34 33 26 25 25 26 29 31 28 20 15 17 18 19 14 12 5 0 1 359 350 346 349 353 350 349 347
92 94 93 90 82 81 81 81 83 82 79 88 81 72 68 68 82 73 58 58 59 62 61 60 63 70 71 73 70 75 72 64 63 60 58 58 62 64 69 63 57 60 61 55 44 40 33 32 30 33 36 38 43 45 45 43 45 43 42 41 39 36 43 44 45 43 42 39 36 34 32 32 29 26 20 21 21 25 23 25 24 22 17 14 9 9 6 0 358 353 354 353 350 347 346 350 346
72 99 99 95 85 81 77 77 71 66 84 95 73 71 75 86 77 56 54 55 56 60 58 56 66 68 68 65 64 64 65 65 64 62 59 59 56 58 54 53 54 54 52 52 48 45 39 34 35 34 35 40 39 43 44 43 40 43 42 40 38 37 42 45 45 44 40 36 36 34 33 32 30 23 20 19 19 16 13 12 17 21 21 18 11 9 6 359 354 350 348 347 347 346 340 341 344
114 104 102 98 95 86 66 70 63 60 63 69 88 74 53 48 222 89 46 45 45 57 53 54 65 67 66 66 66 61 63 64 64 68 68 63 57 54 54 52 50 50 49 47 46 44 40 40 39 36 34 36 39 42 44 45 43 43 40 39 39 41 41 43 44 42 41 39 37 35 37 31 29 28 25 22 22 15 11 7 9 5 14 16 11 5 358 357 352 352 349 345 343 340 336 335 335
110 109 104 96 94 69 62 76 56 86 63 33 86 82 67 45 60 74 53 49 45 60 59 61 65 69 67 67 68 64 66 66 67 63 64 61 59 57 57 56 56 53 49 47 44 42 42 42 40 36 36 38 43 48 49 50 48 46 42 44 41 38 39 41 40 40 43 39 36 35 31 29 28 27 27 22 20 20 19 18 14 9 4 2 9 358 349 343 342 339 342 342 339 335 329 333 335
138 130 97 102 93 65 28 22 10 314 114 288 290 104 54 36 66 64 65 64 58 67 76 71 72 72 72 74 72 68 66 68 67 65 63 65 64 62 64 60 63 64 59 57 53 48 44 39 41 40 40 40 39 42 44 45 45 43 43 40 39 36 37 40 41 40 40 42 36 33 33 31 28 26 23 23 21 21 18 17 17 13 5 359 355 348 325 318 328 334 336 334 335 335 333 332 330
107 59 102 125 110 62 21 12 2 277 72 321 186 231 63 58 80 93 87 111 107 106 99 92 87 85 86 87 82 78 75 75 71 68 67 69 67 62 65 61 57 58 58 55 51 48 44 37 41 41 37 41 38 40 39 41 39 39 38 37 36 36 38 39 40 37 37 37 37 33 33 32 31 27 21 23 21 19 19 21 17 12 4 4 359 358 353 349 343 338 335 328 330 334 334 336 333
114 277 10 55 150 67 32 19 350 252 12 344 230 271 141 133 139 140 142 146 147 129 121 119 112 106 101 95 95 87 78 71 76 75 71 67 69 64 62 60 58 58 62 56 50 49 48 46 39 44 40 43 40 40 39 39 38 37 35 34 33 27 34 36 37 39 38 36 32 31 29 29 27 23 19 17 23 21 19 14 12 8 2 2 3 2 358 354 351 345 340 333 325 319 318 316 324
28 218 99 68 46 104 40 35 28 3 45 359 284 239 138 159 158 155 158 153 179 144 135 127 124 113 104 103 99 91 84 80 76 74 69 66 60 61 57 55 53 54 52 51 55 48 49 45 41 46 39 40 40 36 33 33 34 33 34 31 33 26 29 31 31 31 32 29 28 28 24 26 22 19 16 13 14 12 14 14 12 4 0 359 1 359 359 359 354 346 343 340 332 328 325 318 308
36 360 109 73 42 102 194 51 28 23 300 255 322 53 131 185 172 156 163 172 193 168 152 144 129 130 115 96 90 96 97 88 81 73 69 68 60 58 55 50 50 48 44 43 43 44 44 40 38 35 35 34 35 34 33 32 30 29 30 27 25 27 25 26 27 25 27 24 23 22 17 16 15 14 12 9 11 6 7 7 1 359 355 356 352 353 356 357 352 346 344 341 333 325 323 320 321
63 11 85 18 356 264 139 151 38 352 315 271 352 201 150 108 155 168 175 189 198 186 171 165 161 124 101 97 96 91 94 91 82 73 58 55 58 52 57 49 47 47 48 44 41 39 39 38 36 31 30 34 34 29 24 24 23 21 22 24 20 24 26 23 22 20 19 22 16 17 12 11 12 9 6 2 4 2 359 2 358 357 353 352 353 352 351 346 348 348 341 339 334 327 324 323 320
117 122 125 113 84 41 37 355 6 347 29 272 107 131 135 151 159 175 181 189 209 204 188 181 180 152 147 132 112 102 97 106 97 83 65 70 71 64 65 57 50 45 48 47 43 39 39 36 34 32 27 25 28 28 19 19 18 19 13 9 16 16 21 24 15 18 15 13 13 5 5 3 4 3 4 359 358 355 353 354 352 354 352 354 355 353 348 345 341 338 336 332 332 326 320 320 317
93 70 97 133 149 91 57 3 360 354 3 60 50 189 165 168 180 183 188 197 209 207 209 210 197 189 179 181 167 163 144 125 123 114 43 83 72 54 58 57 51 44 45 43 40 36 33 32 29 29 24 14 15 18 18 13 14 8 9 6 12 14 11 8 10 9 6 8 4 359 359 358 360 355 358 354 354 353 350 351 349 348 347 346 347 349 350 350 339 335 333 329 323 323 322 318 318
56 81 100 92 115 111 172 244 345 5 287 40 350 334 191 189 194 191 195 195 220 220 213 210 205 199 197 187 185 186 200 155 124 256 253 299 319 48 34 32 32 60 45 37 35 31 26 19 14 22 15 16 11 15 16 12 8 6 3 5 357 3 2 356 360 1 356 355 351 353 349 358 353 349 353 350 348 345 346 344 343 345 343 342 339 336 332 331 332 329 326 325 325 323 320 322 320
350 78 81 96 331 116 40 322 356 334 286 155 205 249 228 218 208 203 197 206 217 212 213 211 206 206 204 205 200 204 199 197 229 209 198 214 222 282 314 355 2 0 30 18 28 10 1 355 3 360 8 10 14 9 6 7 6 4 345 350 340 344 349 352 351 356 351 344 343 345 345 348 347 343 346 345 340 340 340 340 339 338 338 336 332 328 326 326 325 326 325 321 323 321 318 324 323
36 348 35 240 61 328 292 299 349 354 273 228 185 224 226 220 216 211 209 212 218 215 213 209 205 205 208 207 214 212 205 217 211 216 217 218 229 252 253 272 244 279 284 341 8 339 340 325 344 334 358 344 3 1 353 358 346 344 332 326 320 328 314 309 320 327 338 339 339 341 339 341 339 337 337 335 334 331 333 331 332 331 332 329 327 327 328 326 329 326 321 321 319 315 305 315 318
335 232 264 349 36 316 257 142 341 9 306 327 221 246 250 228 218 217 215 215 219 217 214 215 213 210 207 205 203 207 213 209 214 214 215 219 224 228 231 229 256 256 242 250 311 318 315 318 311 313 312 318 327 348 324 316 303 298 287 290 293 294 315 310 298 312 331 334 337 337 335 334 332 328 329 327 327 324 323 321 321 324 323 324 321 321 322 323 324 321 321 317 316 313 315 308 312
85 346 346 295 315 352 294 357 320 289 218 286 268 258 255 227 216 217 218 213 220 214 213 221 219 227 226 226 238 234 229 217 219 216 225 228 224 222 232 242 245 255 250 257 276 289 294 297 293 289 292 300 302 318 315 309 307 304 311 298 283 289 292 312 333 337 339 334 328 333 329 325 321 322 321 321 318 317 316 315 315 314 316 316 317 318 316 319 323 322 319 315 314 312 309 307 304
148 116 350 6 317 297 300 293 300 245 228 153 298 298 253 189 217 222 204 200 216 215 215 215 215 215 217 223 226 225 231 242 240 240 234 238 246 246 234 234 237 243 255 251 257 271 277 282 286 284 285 287 288 295 298 297 303 308 328 335 339 337 334 340 342 338 333 333 329 320 315 314 311 308 308 311 310 310 310 310 309 308 311 312 314 315 313 314 317 319 318 312 307 304 301 302 300
258 121 201 112 267 277 275 277 244 265 284 97 274 298 291 167 209 214 207 206 214 208 218 218 215 214 212 217 220 220 222 224 231 244 253 250 247 247 247 241 242 249 253 258 256 258 265 270 274 274 274 280 282 287 296 301 303 312 321 322 321 324 324 326 324 315 314 313 309 305 303 301 299 300 297 300 304 305 306 307 309 308 307 308 310 311 313 314 312 315 310 304 301 299 297 294 297
284 98 229 274 266 260 253 248 237 276 356 214 187 248 277 296 293 16 224 213 215 215 218 220 219 216 214 216 222 225 226 232 240 242 244 248 253 257 266 263 250 246 251 254 258 257 260 265 270 274 276 276 280 282 287 280 296 304 309 306 309 314 317 309 309 306 300 296 296 296 297 298 298 295 298 299 300 301 305 305 308 307 306 307 307 306 309 311 310 304 303 297 295 292 292 291 293
3 57 294 290 284 276 250 226 244 318 335 294 167 163 263 251 223 104 135 219 224 229 224 218 218 218 216 220 226 231 236 242 246 252 255 257 257 262 265 263 258 251 246 248 251 257 260 264 267 269 270 271 270 268 270 272 273 290 291 300 305 306 304 304 303 297 296 298 295 296 295 296 296 297 296 298 298 301 303 304 306 303 302 302 302 302 305 306 303 302 302 301 296 293 289 287 286
71 319 254 279 258 256 235 234 231 190 280 279 123 163 265 285 237 154 97 240 245 237 227 223 214 211 212 216 224 231 240 249 257 263 269 272 272 272 270 268 262 250 243 245 253 257 259 260 262 265 267 265 265 261 260 265 272 279 286 289 293 296 300 299 298 296 294 296 295 295 296 296 298 298 297 295 295 296 297 300 300 299 298 298 298 300 300 301 304 303 300 296 295 290 286 283 281
313 220 245 214 215 162 193 272 269 246 243 245 54 272 289 298 304 316 178 171 320 309 219 217 211 205 207 210 215 224 237 250 258 264 270 271 273 272 266 257 256 250 242 246 251 253 256 257 261 263 265 266 264 262 263 270 275 275 279 282 284 286 289 290 290 291 293 295 295 295 295 295 295 295 297 295 294 295 296 296 295 294 293 291 293 294 297 302 303 301 299 295 291 288 286 283 280
278 248 271 260 190 191 203 140 210 248 247 102 8 10 268 239 243 92 54 80 242 297 288 225 210 203 196 198 209 219 236 248 259 275 279 280 277 264 245 247 250 251 250 250 251 254 257 259 257 258 264 267 267 265 267 268 270 269 267 269 271 273 278 280 283 288 291 291 291 292 293 295 294 295 295 295 296 297 295 294 294 292 292 292 291 292 294 297 298 297 295 293 290 288 284 282 279
255 254 272 303 327 267 214 162 223 192 290 94 45 320 262 231 250 333 29 346 321 275 275 295 251 203 187 190 197 214 223 245 264 273 284 294 295 297 283 268 260 255 256 261 265 265 262 260 259 259 264 271 275 271 266 266 265 263 263 264 264 266 267 271 276 279 282 286 290 291 294 294 295 297 296 296 293 294 294 293 293 294 292 290 291 291 292 293 294 292 290 288 285 283 282 279 277
359 4 344 341 342 356 286 321 353 275 122 40 184 15 263 284 285 41 354 356 330 310 302 291 271 190 171 181 196 203 219 245 279 293 299 301 301 298 293 286 277 274 272 271 269 265 261 259 264 267 271 276 279 277 271 269 264 261 260 262 263 265 268 269 273 277 280 282 286 289 291 293 295 292 293 291 291 292 289 288 289 289 288 288 289 289 290 291 290 290 289 286 284 280 278 277 274
43 263 329 7 23 342 310 311 298 349 328 300 131 307 258 292 88 346 21 326 340 342 332 330 115 131 141 151 172 217 242 245 273 292 302 308 302 300 296 293 286 277 276 276 274 269 266 266 269 271 274 274 274 275 273 270 269 267 262 259 258 258 264 268 271 275 280 282 284 287 288 289 289 290 289 288 288 286 285 286 286 286 287 287 287 288 288 288 288 287 286 285 282 281 278 277 275
198 330 248 281 42 335 268 18 302 322 322 298 177 236 299 288 76 55 5 54 46 43 62 101 108 108 111 191 201 224 251 280 298 301 303 300 298 296 288 283 281 279 278 276 275 274 271 272 275 277 277 279 281 279 276 274 272 271 266 262 260 260 262 265 269 271 274 279 285 286 286 286 284 287 285 284 282 282 283 283 283 282 285 286 286 286 287 287 288 286 286 284 282 279 278 276 276
28 245 34 45 7 243 291 136 100 176 193 242 236 278 256 186 114 25 44 53 78 62 93 119 151 117 1 229 232 254 278 298 304 307 304 300 299 297 295 292 287 283 280 279 282 282 281 282 281 280 280 282 280 276 276 276 275 274 269 264 262 262 260 260 265 271 276 280 281 281 282 282 283 280 281 281 281 279 279 280 283 284 284 285 285 285 285 286 285 285 284 284 282 281 279 281 278
286 308 76 103 60 356 287 312 200 238 275 274 96 272 289 4 326 114 96 67 169 219 214 209 252 278 263 258 261 278 292 299 296 288 281 279 281 284 286 281 280 280 283 287 288 290 287 285 280 281 284 285 286 287 289 288 286 281 276 272 266 262 262 261 262 266 273 278 279 280 280 282 282 283 280 280 278 278 278 279 281 283 284 284 284 284 284 285 286 284 283 282 283 283 284 282 278
12 9 61 275 337 230 128 250 314 328 280 298 262 299 278 260 280 48 34 13 355 334 273 258 265 270 285 291 288 288 293 291 295 301 301 300 298 297 297 296 297 298 297 292 290 289 287 283 280 278 279 278 280 282 281 280 278 275 271 273 273 270 265 261 260 264 271 276 279 279 280 280 282 281 280 278 277 278 280 280 281 283 284 285 285 284 285 285 285 285 284 282 282 284 283 283 283
78 194 123 31 253 286 301 15 308 318 283 333 273 78 289 96 67 352 355 4 12 0 357 349 338 331 320 303 299 298 300 304 306 307 307 303 300 299 301 304 306 306 304 300 296 293 287 286 284 282 279 280 282 282 282 282 279 275 271 271 270 265 262 262 262 266 271 275 279 279 279 279 278 278 278 276 276 277 279 281 282 284 285 286 285 285 284 285 285 284 284 286 287 286 283 282 282
336 245 52 157 100 310 265 223 237 274 301 275 299 295 261 54 73 354 359 29 32 30 23 20 350 308 293 291 294 295 300 301 299 300 301 302 304 305 305 305 302 299 293 288 286 286 286 285 283 282 285 287 286 283 283 281 282 280 278 277 277 274 270 265 265 265 268 273 277 277 276 275 277 276 276 277 277 277 278 280 283 285 285 286 286 286 286 285 285 286 287 288 287 285 283 280 279
294 312 11 352 302 271 293 276 115 6 225 273 282 279 279 301 109 344 38 83 90 92 18 336 326 323 317 313 310 307 303 300 300 301 302 303 304 305 305 303 300 297 293 291 290 289 287 284 282 283 282 280 283 284 282 283 282 280 278 277 276 275 271 267 267 267 270 274 277 276 275 274 274 275 276 277 277 277 278 280 283 285 286 286 286 286 287 286 285 288 288 287 284 281 280 280 279